When you browse on this site, cookies collect data to enhance your experience and personalize the content and advertising you see.
Visit our Privacy Policy to learn more. By continuing to use the site, you agree to this use of cookies and data.

Stündliche Wetter Zatyshne

Heute, 22 September, Dienstag

Zeit Temperatur Niederschläge Wind Luftdruck Luftfeuchtigkeit
00:00 +13°C° 0 mm 1 m/S 754 mmHg 38%
01:00 +12°C° 0 mm 1 m/S 754 mmHg 39%
02:00 +10°C° 0 mm 0 m/S 754 mmHg 43%
03:00 +11°C° 0 mm 1 m/S 754 mmHg 44%
04:00 +11°C° 0 mm 1 m/S 754 mmHg 45%
05:00 +11°C° 0 mm 1 m/S 754 mmHg 46%
06:00 +13°C° 0 mm 1 m/S 754 mmHg 41%
07:00 +15°C° 0 mm 1 m/S 755 mmHg 36%
08:00 +18°C° 0 mm 1 m/S 755 mmHg 32%
09:00 +20°C° 0 mm 1 m/S 755 mmHg 29%
10:00 +22°C° 0 mm 1 m/S 755 mmHg 26%
11:00 +23°C° 0 mm 2 m/S 754 mmHg 22%
12:00 +24°C° 0 mm 1 m/S 754 mmHg 21%
13:00 +25°C° 0 mm 1 m/S 754 mmHg 20%
14:00 +26°C° 0 mm 1 m/S 754 mmHg 18%
15:00 +25°C° 0 mm 1 m/S 753 mmHg 20%
16:00 +24°C° 0 mm 1 m/S 753 mmHg 21%
17:00 +23°C° 0 mm 1 m/S 753 mmHg 23%
18:00 +21°C° 0 mm 1 m/S 753 mmHg 26%
19:00 +19°C° 0 mm 1 m/S 753 mmHg 28%
20:00 +16°C° 0 mm 1 m/S 753 mmHg 31%
21:00 +16°C° 0 mm 1 m/S 753 mmHg 32%
22:00 +15°C° 0 mm 1 m/S 752 mmHg 33%
23:00 +15°C° 0 mm 2 m/S 752 mmHg 34%

Morgen, 23 September, Mittwoch

Zeit Temperatur Niederschläge Wind Luftdruck Luftfeuchtigkeit
00:00 +15°C° 0 mm 2 m/S 752 mmHg 35%
01:00 +14°C° 0 mm 1 m/S 752 mmHg 36%
02:00 +14°C° 0 mm 1 m/S 752 mmHg 38%
03:00 +13°C° 0 mm 2 m/S 752 mmHg 38%
04:00 +13°C° 0 mm 2 m/S 752 mmHg 38%
05:00 +13°C° 0 mm 2 m/S 752 mmHg 39%
06:00 +15°C° 0 mm 2 m/S 752 mmHg 35%
07:00 +17°C° 0 mm 2 m/S 752 mmHg 31%
08:00 +19°C° 0 mm 3 m/S 752 mmHg 27%
09:00 +21°C° 0 mm 3 m/S 752 mmHg 24%
10:00 +24°C° 0 mm 3 m/S 752 mmHg 20%
11:00 +26°C° 0 mm 3 m/S 751 mmHg 16%
12:00 +27°C° 0 mm 3 m/S 751 mmHg 14%
13:00 +28°C° 0 mm 3 m/S 750 mmHg 13%
14:00 +28°C° 0 mm 3 m/S 750 mmHg 11%
15:00 +27°C° 0 mm 2 m/S 750 mmHg 13%
16:00 +26°C° 0 mm 2 m/S 749 mmHg 14%
17:00 +25°C° 0 mm 1 m/S 749 mmHg 16%
18:00 +23°C° 0 mm 2 m/S 749 mmHg 17%
19:00 +20°C° 0 mm 2 m/S 749 mmHg 18%
20:00 +19°C° 0 mm 2 m/S 749 mmHg 19%
21:00 +18°C° 0 mm 2 m/S 749 mmHg 22%
22:00 +17°C° 0 mm 2 m/S 749 mmHg 24%
23:00 +16°C° 0 mm 1 m/S 749 mmHg 27%

übermorgen, 24 September, Donnerstag

Zeit Temperatur Niederschläge Wind Luftdruck Luftfeuchtigkeit
00:00 +16°C° 0 mm 1 m/S 749 mmHg 30%
01:00 +15°C° 0 mm 1 m/S 749 mmHg 33%
02:00 +15°C° 0 mm 1 m/S 749 mmHg 36%
03:00 +15°C° 0 mm 2 m/S 749 mmHg 38%
04:00 +15°C° 0 mm 2 m/S 749 mmHg 41%
05:00 +14°C° 0 mm 2 m/S 749 mmHg 43%
06:00 +16°C° 0 mm 2 m/S 749 mmHg 39%
07:00 +18°C° 0 mm 3 m/S 749 mmHg 35%
08:00 +20°C° 0 mm 3 m/S 749 mmHg 30%
09:00 +22°C° 0 mm 3 m/S 749 mmHg 31%
10:00 +25°C° 0 mm 4 m/S 749 mmHg 31%
11:00 +27°C° 0 mm 4 m/S 748 mmHg 31%
12:00 +28°C° 0 mm 4 m/S 748 mmHg 29%
13:00 +28°C° 0 mm 4 m/S 748 mmHg 27%
14:00 +29°C° 0 mm 4 m/S 748 mmHg 26%
15:00 +28°C° 0 mm 3 m/S 748 mmHg 28%
16:00 +27°C° 0 mm 2 m/S 747 mmHg 29%
17:00 +26°C° 0 mm 2 m/S 747 mmHg 31%
18:00 +24°C° 0 mm 2 m/S 747 mmHg 34%
19:00 +23°C° 0 mm 2 m/S 748 mmHg 37%
20:00 +20°C° 0 mm 2 m/S 748 mmHg 40%
21:00 +19°C° 0 mm 2 m/S 748 mmHg 40%
22:00 +18°C° 0 mm 2 m/S 748 mmHg 40%
23:00 +18°C° 0 mm 2 m/S 748 mmHg 41%

25 September, Freitag

Zeit Temperatur Niederschläge Wind Luftdruck Luftfeuchtigkeit
00:00 +17°C° 0 mm 2 m/S 748 mmHg 40%
01:00 +17°C° 0 mm 2 m/S 748 mmHg 40%
02:00 +16°C° 0 mm 2 m/S 748 mmHg 40%
03:00 +16°C° 0 mm 3 m/S 748 mmHg 42%
04:00 +16°C° 0 mm 3 m/S 748 mmHg 44%
05:00 +14°C° 0 mm 3 m/S 748 mmHg 46%
06:00 +17°C° 0 mm 3 m/S 748 mmHg 44%
07:00 +18°C° 0 mm 4 m/S 748 mmHg 42%
08:00 +20°C° 0 mm 4 m/S 748 mmHg 40%
09:00 +22°C° 0 mm 4 m/S 747 mmHg 38%
10:00 +25°C° 0 mm 5 m/S 747 mmHg 36%
11:00 +27°C° 0 mm 5 m/S 747 mmHg 34%
12:00 +28°C° 0 mm 4 m/S 747 mmHg 32%
13:00 +29°C° 0 mm 4 m/S 746 mmHg 30%
14:00 +29°C° 0 mm 4 m/S 746 mmHg 28%
15:00 +28°C° 0 mm 3 m/S 746 mmHg 29%
16:00 +28°C° 0 mm 3 m/S 746 mmHg 31%
17:00 +27°C° 0 mm 2 m/S 745 mmHg 32%
18:00 +25°C° 0 mm 2 m/S 745 mmHg 35%
19:00 +22°C° 0 mm 3 m/S 745 mmHg 37%
20:00 +21°C° 0 mm 3 m/S 746 mmHg 40%
21:00 +20°C° 0 mm 3 m/S 745 mmHg 45%
22:00 +19°C° 0 mm 2 m/S 745 mmHg 51%
23:00 +19°C° 0 mm 2 m/S 745 mmHg 56%

26 September, Samstag

Zeit Temperatur Niederschläge Wind Luftdruck Luftfeuchtigkeit
00:00 +18°C° 0 mm 2 m/S 745 mmHg 58%
01:00 +18°C° 0 mm 2 m/S 745 mmHg 61%
02:00 +17°C° 0 mm 2 m/S 745 mmHg 64%
03:00 +17°C° 0 mm 2 m/S 745 mmHg 61%
04:00 +16°C° 0 mm 2 m/S 745 mmHg 59%
05:00 +16°C° 0 mm 3 m/S 744 mmHg 57%
06:00 +18°C° 0 mm 3 m/S 744 mmHg 53%
07:00 +19°C° 0 mm 4 m/S 744 mmHg 48%
08:00 +21°C° 0 mm 4 m/S 744 mmHg 44%
09:00 +23°C° 0 mm 5 m/S 744 mmHg 41%
10:00 +26°C° 0 mm 5 m/S 744 mmHg 38%
11:00 +29°C° 0 mm 5 m/S 744 mmHg 35%
12:00 +29°C° 0 mm 6 m/S 744 mmHg 34%
13:00 +30°C° 0 mm 6 m/S 744 mmHg 32%
14:00 +32°C° 0 mm 6 m/S 743 mmHg 31%
15:00 +30°C° 0 mm 6 m/S 743 mmHg 32%
16:00 +29°C° 0 mm 6 m/S 743 mmHg 33%
17:00 +28°C° 0 mm 6 m/S 743 mmHg 34%
18:00 +27°C° 0 mm 5 m/S 743 mmHg 35%
19:00 +25°C° 0 mm 5 m/S 743 mmHg 36%
20:00 +23°C° 0 mm 5 m/S 743 mmHg 36%
21:00 +22°C° 0 mm 6 m/S 743 mmHg 37%
22:00 +22°C° 0 mm 7 m/S 743 mmHg 38%
23:00 +22°C° 0 mm 8 m/S 743 mmHg 38%

27 September, Sonntag

Zeit Temperatur Niederschläge Wind Luftdruck Luftfeuchtigkeit
00:00 +21°C° 0 mm 8 m/S 743 mmHg 41%
01:00 +21°C° 0 mm 8 m/S 743 mmHg 44%
02:00 +19°C° 0 mm 9 m/S 743 mmHg 47%
03:00 +19°C° 0 mm 9 m/S 743 mmHg 47%
04:00 +19°C° 0 mm 9 m/S 743 mmHg 48%
05:00 +18°C° 0 mm 9 m/S 743 mmHg 48%
06:00 +18°C° 0 mm 10 m/S 743 mmHg 49%
07:00 +19°C° 0 mm 10 m/S 743 mmHg 49%
08:00 +19°C° 0 mm 10 m/S 744 mmHg 49%
09:00 +21°C° 0.1 mm 10 m/S 743 mmHg 47%
10:00 +23°C° 0.1 mm 10 m/S 743 mmHg 44%
11:00 +26°C° 0.1 mm 10 m/S 743 mmHg 42%
12:00 +26°C° 0.4 mm 10 m/S 743 mmHg 43%
13:00 +26°C° 0.4 mm 10 m/S 743 mmHg 45%
14:00 +26°C° 0.4 mm 9 m/S 743 mmHg 46%
15:00 +24°C° 2.6 mm 9 m/S 743 mmHg 57%
16:00 +22°C° 2.6 mm 8 m/S 744 mmHg 68%
17:00 +21°C° 2.6 mm 7 m/S 744 mmHg 80%
18:00 +20°C° 1.3 mm 7 m/S 744 mmHg 80%
19:00 +20°C° 1.3 mm 6 m/S 745 mmHg 81%
20:00 +20°C° 1.3 mm 6 m/S 745 mmHg 82%
21:00 +19°C° 0.1 mm 5 m/S 746 mmHg 80%
22:00 +18°C° 0.1 mm 4 m/S 747 mmHg 79%
23:00 +17°C° 0.1 mm 3 m/S 747 mmHg 77%
Mehr zeigen